| time (UTC) | temp F | wind direction | speed MPH | gust MPH | rain 1hr in | rain 24hr in | rain mn in | humidity % | barometer mb |
| 20260503223220 | 61 | 220 | 2.0 | 9.0 | 0.00 | 0.01 | 0.00 | 41 | 1010.8 |
| 20260503221713 | 62 | 223 | 3.0 | 8.0 | 0.00 | 0.01 | 0.00 | 40 | 1010.8 |
| 20260503220237 | 62 | 238 | 2.0 | 6.0 | 0.00 | 0.01 | 0.00 | 42 | 1010.9 |
| 20260503214740 | 62 | 163 | 2.0 | 9.0 | 0.00 | 0.02 | 0.00 | 42 | 1010.9 |
| 20260503213231 | 61 | 283 | 4.0 | 7.0 | 0.00 | 0.02 | 0.00 | 41 | 1011.0 |
| 20260503211721 | 61 | 250 | 3.0 | 10.0 | 0.00 | 0.02 | 0.00 | 40 | 1011.0 |
| 20260503210224 | 61 | 287 | 3.0 | 10.0 | 0.00 | 0.02 | 0.00 | 40 | 1010.9 |
| 20260503204728 | 62 | 304 | 3.0 | 6.0 | 0.00 | 0.02 | 0.00 | 41 | 1010.9 |
| 20260503203219 | 62 | 277 | 2.0 | 15.0 | 0.00 | 0.02 | 0.00 | 40 | 1010.9 |
| 20260503201732 | 63 | 277 | 3.0 | 10.0 | 0.00 | 0.02 | 0.00 | 40 | 1011.1 |
| 20260503200239 | 63 | 146 | 3.0 | 6.0 | 0.00 | 0.02 | 0.00 | 40 | 1011.3 |
| 20260503194720 | 62 | 223 | 4.0 | 13.0 | 0.00 | 0.02 | 0.00 | 40 | 1011.6 |
| 20260503193212 | 61 | 164 | 2.0 | 10.0 | 0.00 | 0.02 | 0.00 | 43 | 1011.7 |
| 20260503191723 | 61 | 232 | 3.0 | 9.0 | 0.00 | 0.02 | 0.00 | 43 | 1012.2 |
| 20260503190249 | 62 | 236 | 5.0 | 8.0 | 0.00 | 0.02 | 0.00 | 40 | 1012.2 |
| 20260503184730 | 62 | 292 | 4.0 | 9.0 | 0.00 | 0.02 | 0.00 | 40 | 1012.4 |
| 20260503183220 | 63 | 275 | 3.0 | 10.0 | 0.00 | 0.02 | 0.00 | 41 | 1012.5 |
| 20260503181734 | 63 | 231 | 6.0 | 12.0 | 0.00 | 0.02 | 0.00 | 40 | 1012.6 |
| 20260503180241 | 63 | 279 | 3.0 | 11.0 | 0.00 | 0.02 | 0.00 | 43 | 1012.7 |
| 20260503174719 | 62 | 310 | 3.0 | 12.0 | 0.00 | 0.02 | 0.00 | 42 | 1012.9 |
| 20260503173212 | 61 | 261 | 4.0 | 12.0 | 0.00 | 0.02 | 0.00 | 42 | 1013.2 |
| 20260503171727 | 61 | 281 | 4.0 | 12.0 | 0.00 | 0.02 | 0.00 | 44 | 1013.4 |
| 20260503170233 | 60 | 250 | 2.0 | 8.0 | 0.00 | 0.02 | 0.00 | 44 | 1013.6 |
| 20260503150237 | 57 | 273 | 2.0 | 7.0 | 0.00 | 0.03 | 0.00 | 46 | 1014.4 |
| 20260503140246 | 54 | 288 | 2.0 | 4.0 | 0.00 | 0.03 | 0.00 | 48 | 1014.8 |
| 20260503130239 | 48 | 255 | 1.0 | 5.0 | 0.00 | 0.04 | 0.00 | 55 | 1015.3 |
| 20260503110238 | 38 | 257 | 0.0 | 0.0 | 0.00 | 0.04 | 0.00 | 74 | 1015.0 |
| 20260503100229 | 38 | 257 | 0.0 | 1.0 | 0.00 | 0.04 | 0.00 | 75 | 1014.6 |
| 20260503090238 | 39 | 284 | 0.0 | 0.0 | 0.00 | 0.04 | 0.00 | 75 | 1014.7 |
| 20260503080228 | 39 | 284 | 0.0 | 1.0 | 0.00 | 0.05 | 0.00 | 75 | 1014.8 |
| 20260503071715 | 39 | 252 | 0.0 | 1.0 | 0.00 | 0.05 | 0.00 | 74 | 1014.9 |
| 20260503070238 | 39 | 251 | 0.0 | 0.0 | 0.00 | 0.05 | 0.00 | 73 | 1014.8 |
| 20260503060227 | 40 | 251 | 0.0 | 0.0 | 0.00 | 0.06 | 0.00 | 70 | 1015.1 |
| 20260503054712 | 40 | 251 | 0.0 | 0.0 | 0.00 | 0.06 | 0.00 | 70 | 1015.2 |
| 20260503053222 | 41 | 251 | 0.0 | 0.0 | 0.00 | 0.06 | 0.00 | 69 | 1015.2 |
| 20260503051735 | 41 | 251 | 0.0 | 0.0 | 0.00 | 0.06 | 0.00 | 68 | 1015.3 |
| 20260503050237 | 42 | 251 | 0.0 | 0.0 | 0.00 | 0.06 | 0.00 | 68 | 1015.4 |
| 20260503044720 | 42 | 251 | 0.0 | 0.0 | 0.00 | 0.06 | 0.00 | 67 | 1015.5 |
| 20260503043232 | 42 | 251 | 0.0 | 0.0 | 0.00 | 0.06 | 0.00 | 66 | 1015.4 |
| 20260503041723 | 43 | 251 | 0.0 | 0.0 | 0.00 | 0.06 | 0.00 | 66 | 1015.5 |
| 20260503040225 | 43 | 252 | 0.0 | 1.0 | 0.00 | 0.06 | 0.00 | 65 | 1015.5 |
| 20260503034711 | 44 | 253 | 0.0 | 2.0 | 0.00 | 0.06 | 0.06 | 65 | 1015.6 |
| 20260503033245 | 44 | 252 | 0.0 | 1.0 | 0.00 | 0.06 | 0.06 | 65 | 1015.7 |
| 20260503031715 | 44 | 253 | 0.0 | 1.0 | 0.00 | 0.06 | 0.06 | 65 | 1015.7 |
| 20260503030238 | 44 | 254 | 0.0 | 1.0 | 0.00 | 0.06 | 0.06 | 64 | 1015.8 |
| 20260503024720 | 44 | 276 | 0.0 | 0.0 | 0.00 | 0.07 | 0.06 | 63 | 1015.9 |
| 20260503023233 | 44 | 277 | 0.0 | 0.0 | 0.01 | 0.07 | 0.06 | 62 | 1016.0 |
| 20260503021724 | 44 | 277 | 0.0 | 0.0 | 0.01 | 0.07 | 0.06 | 62 | 1016.0 |
| 20260503020252 | 44 | 277 | 0.0 | 0.0 | 0.01 | 0.07 | 0.06 | 61 | 1016.1 |
| 20260503014731 | 44 | 277 | 0.0 | 0.0 | 0.01 | 0.07 | 0.06 | 61 | 1016.0 |
| 20260503013222 | 44 | 277 | 0.0 | 0.0 | 0.00 | 0.06 | 0.05 | 61 | 1015.9 |
| 20260503011734 | 44 | 277 | 0.0 | 0.0 | 0.00 | 0.06 | 0.05 | 61 | 1016.0 |
| 20260503010258 | 44 | 277 | 0.0 | 0.0 | 0.00 | 0.06 | 0.05 | 61 | 1016.0 |
| 20260503004721 | 44 | 277 | 0.0 | 2.0 | 0.00 | 0.07 | 0.05 | 60 | 1016.0 |
| 20260503003213 | 44 | 276 | 0.0 | 2.0 | 0.00 | 0.07 | 0.05 | 60 | 1015.9 |
| 20260503001726 | 44 | 276 | 0.0 | 1.0 | 0.00 | 0.07 | 0.05 | 60 | 1015.9 |
| 20260503000254 | 44 | 276 | 0.0 | 2.0 | 0.00 | 0.07 | 0.05 | 60 | 1015.8 |
| 20260502234714 | 44 | 276 | 0.0 | 3.0 | 0.00 | 0.07 | 0.05 | 60 | 1015.9 |
| 20260502233227 | 44 | 277 | 0.0 | 2.0 | 0.00 | 0.07 | 0.05 | 61 | 1015.8 |
| 20260502231718 | 45 | 277 | 1.0 | 3.0 | 0.00 | 0.07 | 0.05 | 60 | 1015.9 |
| 20260502230232 | 45 | 286 | 1.0 | 5.0 | 0.00 | 0.07 | 0.05 | 60 | 1016.0 |
| 20260502224725 | 45 | 292 | 2.0 | 5.0 | 0.00 | 0.08 | 0.05 | 59 | 1015.9 |